Regional Weather Roundup
Issued by NWS

Home | Current Version | Previous Version | Text Only | Print | Product List | Glossary On
Versions: 1 2 3 4 5 6 7 8 9 10 11 12 13 14 15 16 17 18 19 20 21 22 23 24 25 26 27 28 29 30 31 32 33 34 35 36 37 38 39 40 41 42 43 44 45 46 47 48 49 50
000
ASUS43 KMPX 200401
RWRMN
WEATHER ROUNDUP FOR MINNESOTA
NATIONAL WEATHER SERVICE TWIN CITIES/CHANHASSEN MN
1000 PM CST SUN FEB 19 2017


NOTE: "FAIR" INDICATES FEW OR NO CLOUDS BELOW 12,000 FEET WITH NO
SIGNIFICANT WEATHER AND/OR OBSTRUCTIONS TO VISIBILITY. N/A MEANS
CURRENT SKY AND/OR WEATHER CONDITIONS ARE NOT AVAILABLE.

MNZ060>063-068>070-200500-
   Twin Cities Metro

CITY           SKY/WX    TMP DP  RH WIND       PRES   REMARKS
TWIN CITIES    CLOUDY    50  38  63 SE13      29.88S
ST PAUL        MOCLDY    50  38  63 SE16      29.89R
CRYSTAL        MOCLDY    64  38  38 SE14G23   29.85F
BLAINE         PTCLDY    54  39  58 SE16G24   29.87S
LAKEVILLE      CLOUDY    46  39  76 SE9       29.88S
EDEN PRAIRIE   CLOUDY    52  41  66 SE16      29.85F
SOUTH ST PAUL  CLOUDY    51  37  59 SE8       29.89S
LAKE ELMO      FAIR      52  37  58 SE13      29.90S
$$
MNZ001>005-007-008-013>017-022>024-027-028-200500-
   Northwest Minnesota

CITY           SKY/WX    TMP DP  RH WIND       PRES   REMARKS
BEMIDJI        PTCLDY    42  32  70 SE13      29.76S
HALLOCK        CLOUDY    45  36  70 SE17      29.63R
ROSEAU         PTCLDY    45  34  65 SE14      29.70F
WARROAD        CLOUDY    39  32  75 SE12      29.73F
THIEF RVR FALL CLOUDY    41  34  76 SE16      29.68S
CROOKSTON      CLOUDY    43  39  87 SE18      29.64S
FOSSTON        MOCLDY    45  37  76 SE12G20   29.70S
DETROIT LAKES  CLOUDY    45  41  87 SE13      29.71S
MOORHEAD       CLOUDY    52  46  82 SE21      29.64S
PARK RAPIDS    MOCLDY    47  37  68 SE16      29.75F
MAHNOMEN       FAIR      48  42  78 SE18G26   29.67S
$$
MNZ006-009>011-018-025>026-200500-
   North Central Minnesota

CITY           SKY/WX    TMP DP  RH WIND       PRES   REMARKS
BAUDETTE       CLOUDY    41  29  62 SE15      29.78R
FLAG ISLAND    CLOUDY    39  30  70 E12G18    29.76S
INTL FALLS     PTCLDY    40  29  64 E10       29.86R
WASKISH        PTCLDY    46  34  61 SE14G25   29.79S
BIG FORK       CLOUDY    43  30  61 SE9       29.85R
LONGVILLE      PTCLDY    41  32  70 E5        29.82S
GRAND RAPIDS   CLOUDY    39  30  70 SE12      29.89R
CRANE LAKE     CLOUDY    36  28  75 SE3       29.94S
ORR            CLOUDY    37  27  65 SE7       29.88R
COOK           PTCLDY    37  28  70 E7        29.91S
WALKER         FAIR      42  32  69 E6        29.79R
$$
MNZ012-019>021-037-200500-
   Northeast Minnesota

CITY           SKY/WX    TMP DP  RH WIND       PRES   REMARKS
DULUTH         CLOUDY    36  30  79 E15       29.95R
ELY            CLOUDY    36  28  75 E10       29.95S
HIBBING        PTCLDY    36  29  75 SE10      29.90F
EVELETH        CLOUDY    37  26  64 E7        29.93F
DULUTH HARBOR  CLOUDY    36  34  93 NE17      29.99S
TWO HARBORS    PTCLDY    39  32  75 NE12      29.97S
GRAND MARAIS     N/A     39  29  67 NE15G23   30.07R
G MARAIS ARPRT CLOUDY    32  23  69 E10G17    30.03S WCI  24
$$
MNZ029>031-032-039>041-046>048-054>057-064-200500-
   West Central Minnesota

CITY           SKY/WX    TMP DP  RH WIND       PRES   REMARKS
FERGUS FALLS   MOCLDY    52  46  82 SE17G24   29.72S
WHEATON        MOCLDY    52  46  82 SE17      29.68R
MORRIS         CLOUDY    50  48  93 SE17      29.70R FOG
ALEXANDRIA     CLOUDY    47  45  93 SE14      29.75S
ELBOW LAKE     FAIR      51  49  90 E22G29    29.70R
WADENA         CLOUDY    45  39  81 SE12      29.75S
GLENWOOD       PTCLDY    50  46  87 SE18      29.76S
APPLETON       CLOUDY    55  48  76 SE12      29.71R
BENSON         CLOUDY    54  46  76 S14G22    29.75R
ORTONVILLE     CLOUDY    50  46  87 SE15      29.68R
WILLMAR        FAIR      52  48  87 SE14      29.77S
$$
MNZ033>034-036-042>043-049>051-058-059-200500-
   Central Minnesota

CITY           SKY/WX    TMP DP  RH WIND       PRES   REMARKS
ST CLOUD       PTCLDY    50  42  74 SE13G18   29.81S
SAUK CENTRE    FAIR      47  44  88 SE10      29.78S
PAYNESVILLE    CLOUDY    51  45  80 SE10G20   29.79R
AITKIN         CLOUDY    43  30  61 E9        29.85R
PINE RIVER     PTCLDY    45  36  70 SE9       29.84S
BRAINERD       PTCLDY    48  38  68 SE9       29.82S
STAPLES        PTCLDY    46  39  76 SE8       29.78S
LONG PRAIRIE   FAIR      45  41  87 E10       29.79R
LITTLE FALLS   PTCLDY    46  37  71 SE7       29.82R
LITCHFIELD     CLOUDY    54  46  76 SE10G20   29.79S
BUFFALO        CLOUDY    53  42  66 SE13G18   29.83F
MAPLE LAKE     CLOUDY    51  44  77 SE12G17   29.83S
HUTCHINSON     CLOUDY    50  46  87 SE12      29.82R
$$
MNZ037-044-045-052-053-200500-
   East Central Minnesota

CITY           SKY/WX    TMP DP  RH WIND       PRES   REMARKS
PRINCETON      CLOUDY    52  39  62 SE12G21   29.84F
MORA           PTCLDY    45  34  65 SE7       29.87F
CAMBRIDGE      CLOUDY    52  37  58 SE7       29.84F
RUSH CITY      CLOUDY    52  36  54 SE14G22   29.88S
MOOSE LAKE     PTCLDY    34  32  93 NE6       29.90S WCI  29
HINCKLEY       FAIR      45  32  61 E6        29.89S
CLOQUET        CLOUDY    36  30  80 E9G16     29.94R
MCGREGOR       PTCLDY    36  32  87 E9        29.89R
$$
MNZ071>073-080-081-089-090-097-098-200500-
   Southwest Minnesota

CITY           SKY/WX    TMP DP  RH WIND       PRES   REMARKS
MONTEVIDEO     CLOUDY    54  48  82 S14       29.74R
GRANITE FALLS  CLOUDY    55  49  83 SE17      29.75R
CANBY          CLOUDY    54  48  81 E13       29.70S
MARSHALL       CLOUDY    54  48  80 S14       29.73R
REDWOOD FALLS  CLOUDY    53  47  79 SE16      29.77R
OLIVIA         CLOUDY    54  50  87 SE14      29.77R
PIPESTONE      MOCLDY    54  45  71 S14       29.73S
WINDOM         PTCLDY    54  46  76 SE14G21   29.79S
WORTHINGTON    CLOUDY    52  47  83 S17       29.77S
JACKSON        CLOUDY    50  45  81 SE13      29.81S
TRACY          CLOUDY    55  49  79 S17G24    29.74S
SLAYTON        CLOUDY    50  47  88 SE14      29.76S
$$
MNZ065>067-074>077-082>085-091>093-200500-
   South Central Minnesota

CITY           SKY/WX    TMP DP  RH WIND       PRES   REMARKS
MANKATO          N/A     52  44  74 SE16      29.84S
NEW ULM        CLOUDY    52  46  82 SE13      29.81R
ST JAMES       CLOUDY    54  46  76 SE16      29.82S
FAIRMONT       MOCLDY    51  46  83 SE13      29.83S
GLENCOE        CLOUDY    53  47  82 SE12      29.82R
FARIBAULT      CLOUDY    54  43  66 SE17G25   29.88S
OWATONNA       CLOUDY    50  39  66 SE16      29.88S
WASECA         CLOUDY    50  43  76 SE14      29.89R
ALBERT LEA     PTCLDY    50  43  76 SE12      29.89S
$$
MNZ078>079-086>088-094>096-200500-
   Southeast Minnesota

CITY           SKY/WX    TMP DP  RH WIND       PRES   REMARKS
ROCHESTER      PTCLDY    46  39  76 SE15      29.93S
RED WING       MOCLDY    52  36  54 SE10      29.91S
STANTON        CLOUDY    54  40  60 SE16G23   29.87S
DODGE CENTER   CLOUDY    46  39  76 SE17      29.91S
WINONA         PTCLDY    48  37  66 S6        29.97R
AUSTIN         CLOUDY    48  39  71 SE9       29.91S
PRESTON        CLOUDY    49  37  64 SE10      29.95S
$$
ABBREVIATIONS USED IN REMARKS
   TC - TEMPERATURES IN CELSIUS
  WCI - WIND CHILL INDEX
   HX - HEAT INDEX
  VSB - VISIBILITY
$$




USA.gov is the U.S. government's official web portal to all federal, state and local government web resources and services.